Regional Weather Roundup
Issued by NWS

Home | Current Version | Previous Version | Graphics & Text | Print | Product List | Glossary On
Versions: 1 2 3 4 5 6 7 8 9 10 11 12 13 14 15 16 17 18 19 20 21 22 23 24 25 26 27 28
000
ASUS45 KPSR 231210
RWRAZ

ARIZONA HOURLY REGIONAL WEATHER ROUNDUP
NATIONAL WEATHER SERVICE PHOENIX AZ
500 AM MST SAT JUL 23 2016

NOTE: FAIR INDICATES FEW OR NO CLOUDS BELOW 12,000 FEET WITH NO
SIGNIFICANT WEATHER AND/OR OBSTRUCTIONS TO VISIBILITY.

AZZ001>003-036-231300-
NORTHWEST ARIZONA

CITY           SKY/WX    TMP DP  RH WIND       PRES   REMARKS
BULLHEAD CITY  CLEAR     91  48  22 E3        29.77R
KINGMAN        PTCLDY    79  45  29 SE9       30.01S
6HR MIN TEMP:  78; 6HR MAX TEMP:  89;

$$

AZZ004>008-015-016-018-231300-
NORTH CENTRAL ARIZONA

CITY           SKY/WX    TMP DP  RH WIND       PRES   REMARKS
GRAND CANYON   PTCLDY    54  51  90 CALM      30.30R
6HR MIN TEMP:  53; 6HR MAX TEMP:  64;

WILLIAMS       PTCLDY    55  50  82 S8        30.36F
PRESCOTT       MOCLDY    65  56  72 S7        30.16R
6HR MIN TEMP:  65; 6HR MAX TEMP:  73;

FLAGSTAFF      MOCLDY    58  49  72 CALM      30.31R
6HR MIN TEMP:  57; 6HR MAX TEMP:  68;

PAYSON         PTCLDY    70  48  46 CALM      30.19R
PAGE           PTCLDY    77  48  35 W5        30.08S
6HR MIN TEMP:  77; 6HR MAX TEMP:  85;

$$

AZZ009>014-017-231300-
NORTHEAST ARIZONA

CITY           SKY/WX    TMP DP  RH WIND       PRES   REMARKS
WINSLOW        PTCLDY    63  52  67 SW3       30.17S
6HR MIN TEMP:  60; 6HR MAX TEMP:  70;

SAINT JOHNS    CLEAR     62  50  64 CALM      30.20S
6HR MIN TEMP:  61; 6HR MAX TEMP:  69;

WINDOW ROCK    PTCLDY    60  54  80 NW3       30.29S
6HR MIN TEMP:  59; 6HR MAX TEMP:  68;

SHOW LOW       CLEAR     54  48  82 SW7       30.26S
$$

AZZ023-231300-
GREATER PHOENIX AREA

CITY           SKY/WX    TMP DP  RH WIND       PRES   REMARKS
PHOENIX        MOCLDY    92  56  29 E5        29.81R
6HR MIN TEMP:  91; 6HR MAX TEMP: 100;

BUCKEYE        MOCLDY    84  55  37 CALM      29.82R
LUKE AFB       MOCLDY    90  57  33 CALM      29.81R
6HR MIN TEMP:  89; 6HR MAX TEMP:  97;

DEER VALLEY    PTCLDY    88  51  28 E5        29.83R
6HR MIN TEMP:  87; 6HR MAX TEMP:  96;

SCOTTSDALE     CLEAR     90  53  28 NE3       29.85S
6HR MIN TEMP:  88; 6HR MAX TEMP:  99;

MESA-GATEWAY   MOCLDY    84  55  37 SE8       29.86R
$$

AZZ027-028-231300-
SOUTHWEST MARICOPA COUNTY AND PINAL COUNTY

CITY           SKY/WX    TMP DP  RH WIND       PRES   REMARKS
CASA GRANDE    MOCLDY    88  63  42 S15G25    29.89R
6HR MIN TEMP:  88; 6HR MAX TEMP:  99;

GILA BEND      FAIR      94  56  27 S15       29.81R
6HR MIN TEMP:  89; 6HR MAX TEMP: 100;

$$

AZZ503-504-507>509-231300-
SOUTHEAST ARIZONA

CITY           SKY/WX    TMP DP  RH WIND       PRES   REMARKS
TUCSON         PTCLDY    85  61  44 E7        30.00R
6HR MIN TEMP:  84; 6HR MAX TEMP:  95;

DAVIS-MONTHAN  CLOUDY    83  62  48 S7        29.99R
6HR MIN TEMP:  83; 6HR MAX TEMP:  94;

NOGALES        CLOUDY    72  60  66 SE5       30.09S
6HR MIN TEMP:  72; 6HR MAX TEMP:  82;

SIERRA VISTA   PTCLDY    69  58  68 NE5       30.13S
6HR MIN TEMP:  69; 6HR MAX TEMP:  86;

DOUGLAS        PTCLDY    70  61  73 E8        30.09R
6HR MIN TEMP:  70; 6HR MAX TEMP:  78;

SAFFORD        CLEAR     74  58  57 SE5       29.97R
6HR MIN TEMP:  73; 6HR MAX TEMP:  86;

$$

AZZ020-021-025-026-031-231300-
SOUTHWEST ARIZONA

CITY           SKY/WX    TMP DP  RH WIND       PRES   REMARKS
YUMA           MOCLDY    89  68  49 SE35G41   29.77R
6HR MIN TEMP:  89; 6HR MAX TEMP:  96;

$$

CAZ031-033-041-043-047-048-061-231300-
SOUTHERN CALIFORNIA

CITY           SKY/WX    TMP DP  RH WIND       PRES   REMARKS
DOWNTOWN L.A.  CLOUDY    71  63  75 CALM      29.80R
6HR MIN TEMP:  71; 6HR MAX TEMP:  77;

L.A. AIRPORT   CLOUDY    70  64  81 E7        29.80S
6HR MIN TEMP:  70; 6HR MAX TEMP:  76;

SAN DIEGO      CLOUDY    68  67  96 S5        29.81S
6HR MIN TEMP:  68; 6HR MAX TEMP:  73;

BURBANK        CLOUDY    76  57  51 E6        29.81S
6HR MIN TEMP:  76; 6HR MAX TEMP:  83;

ONTARIO        PTCLDY    75  52  44 CALM      29.83S
6HR MIN TEMP:  74; 6HR MAX TEMP:  85;

RIVERSIDE      CLEAR     75  54  47 CALM      29.83R
6HR MIN TEMP:  74; 6HR MAX TEMP:  85;

PALM SPRINGS   CLEAR     90  41  18 N9        29.77S
6HR MIN TEMP:  90; 6HR MAX TEMP: 102;

EL CENTRO NAS  CLEAR     82  68  62 SE3       29.72R
6HR MIN TEMP:  81; 6HR MAX TEMP:  96;

IMPERIAL       CLEAR     86  68  54 SE8       29.70R
6HR MIN TEMP:  86; 6HR MAX TEMP:  98;

BLYTHE         CLEAR     94  52  24 S6        29.75S
6HR MIN TEMP:  92; 6HR MAX TEMP: 102;

NEEDLES        CLEAR     94  52  24 SW8       29.78R
6HR MIN TEMP:  94; 6HR MAX TEMP: 107;

$$

NVZ020-UTZ003-231300-
SOUTHERN NEVADA-UTAH

CITY           SKY/WX    TMP DP  RH WIND       PRES   REMARKS
LAS VEGAS      PTCLDY    89  25  10 CALM      29.83R
6HR MIN TEMP:  87; 6HR MAX TEMP:  99;

SALT LAKE CITY PTCLDY    70  36  28 NW6       30.11R
6HR MIN TEMP:  67; 6HR MAX TEMP:  81;

$$

NMZ009-TXZ055-231300-
NEW MEXICO-WEST TEXAS

CITY           SKY/WX    TMP DP  RH WIND       PRES   REMARKS
ALBUQUERQUE    PTCLDY    69  50  50 S3        30.16S
6HR MIN TEMP:  69; 6HR MAX TEMP:  85;

EL PASO        PTCLDY    80  47  31 CALM      30.03S
6HR MIN TEMP:  80; 6HR MAX TEMP:  90;

$$


........................KEY........................
SKY/WX - SKY CONDITION/WEATHER
TMP    - TEMPERATURE IN FAHRENHEIT
DP     - DEW POINT IN FAHRENHEIT
RH     - RELATIVE HUMIDITY IN PERCENT
WIND   - DIRECTION AND SPEED IN MILES PER HOUR (MPH)
VRB    - VARIABLE WIND DIRECTION
PRES   - MEAN SEA LEVEL PRESSURE IN INCHES OF MERCURY
         F - FALLING PRESSURE   R - RISING PRESSURE
         S - STEADY PRESSURE
VSB    - VISIBILITY IN MILES
HX     - HEAT INDEX IN FAHRENHEIT
WCI    - WIND CHILL INDEX IN FAHRENHEIT
TC     - TEMPERATURE IN CELSIUS WHICH IS ALSO KNOWN AS
         TEMPERATURE IN CENTIGRADE
AFB    - AIR FORCE BASE
         LUKE AFB IS LUKE AIR FORCE BASE
         DAVIS-MONTHAN IS DAVIS-MONTHAN AIR FORCE BASE
NAS    - NAVAL AIR STATION
         EL CENTRO NAS IS EL CENTRO NAVAL AIR STATION
N/A    - NOT AVAILABLE





USA.gov is the U.S. government's official web portal to all federal, state and local government web resources and services.